This is the latest recevied weather packets stored in our database for station/object KF4LQQ-13. If no packets are shown the sender has not sent any weather packets the latest 10 day(s).
| Time | Temp. | Humidity | Pressure | Rain* | Wind** | Luminosity | Snow |
|---|---|---|---|---|---|---|---|
| 1777491962 | 30.56° C | - | 1012 hPa | 0 mm | - | - | - |
| 1777491362 | 30.56° C | - | 1012.2 hPa | 0 mm | - | - | - |
| 1777490762 | 30.56° C | - | 1012.3 hPa | 0 mm | - | - | - |
| 1777490161 | 30° C | - | 1012.5 hPa | 0 mm | - | - | - |
| 1777489561 | 30.56° C | - | 1012.8 hPa | 0 mm | - | - | - |
| 1777488961 | 30° C | - | 1012.9 hPa | 0 mm | - | - | - |
| 1777488361 | 30.56° C | - | 1012.9 hPa | 0 mm | - | - | - |
| 1777487879 | 30° C | - | 1013 hPa | 0 mm | - | - | - |
| 1777487760 | 30° C | - | 1013 hPa | 0 mm | - | - | - |
| 1777487160 | 29.44° C | - | 1013.2 hPa | 0 mm | - | - | - |
| 1777486560 | 29.44° C | - | 1013.2 hPa | 0 mm | - | - | - |
| 1777485959 | 30° C | - | 1013.4 hPa | 0 mm | - | - | - |
| 1777485359 | 30° C | - | 1013.5 hPa | 0 mm | - | - | - |
| 1777484759 | 30° C | - | 1013.8 hPa | 0 mm | - | - | - |
| 1777484159 | 29.44° C | - | 1013.9 hPa | 0 mm | - | - | - |
| 1777483558 | 29.44° C | - | 1014 hPa | 0 mm | - | - | - |
| 1777482958 | 29.44° C | - | 1014 hPa | 0 mm | - | - | - |
| 1777482355 | 28.89° C | - | 1014.1 hPa | 0 mm | - | - | - |
| 1777481755 | 28.89° C | - | 1014.2 hPa | 0 mm | - | - | - |
| 1777481155 | 28.89° C | - | 1014.6 hPa | 0 mm | - | - | - |
| 1777480555 | 28.89° C | - | 1014.9 hPa | 0 mm | - | - | - |
| 1777479954 | 28.33° C | - | 1015.1 hPa | 0 mm | - | - | - |
| 1777479354 | 28.33° C | - | 1015.3 hPa | 0 mm | - | - | - |
| 1777478754 | 27.78° C | - | 1015.3 hPa | 0 mm | - | - | - |
| 1777478154 | 27.22° C | - | 1015.3 hPa | 0 mm | - | - | - |
* Rain since midnight (hover to see other rain measurements)
** Current wind speed in m/s (hover to see current wind gust speed)